Visibility
15.0 15.0 15.0 15.0 15.0 15.0 15.0 15.0 15.0 15.0 15.0 15.0 15.0 15.0 15.0 15.0 15.0 15.0 15.0 15.0 15.0 15.0 15.0 15.0 15.0 15.0 15.0 6.3 15.0 15.0 15.0 15.0 5.8 7.2 11.3 15.0 5.0 15.0 15.0 15.0 15.0 15.0 15.0
15.0 15.0 15.0 15.0 15.0 15.0 15.0 15.0 15.0 15.0 15.0 15.0 15.0 15.0 15.0 15.0 15.0 15.0 14.5 15.0 15.0 15.0 15.0 15.0 15.0 8.3 5.4 14.4 15.0 15.0 15.0 3.4 5.7 13.7 7.1 0.1 0.2 14.0 15.0 15.0 15.0 15.0 15.0
15.0 8.0 12.8 15.0 15.0 15.0 12.4 15.0 15.0 15.0 15.0 15.0 15.0 15.0 15.0 15.0 15.0 15.0 15.0 15.0 15.0 15.0 15.0 14.4 15.0 10.1 3.8 12.7 15.0 3.9 3.3 3.9 5.6 14.8 0.4 3.5 3.9 15.0 15.0 15.0 15.0 15.0 15.0
15.0 14.3 15.0 15.0 15.0 15.0 15.0 15.0 15.0 12.7 15.0 8.6 15.0 15.0 15.0 15.0 15.0 15.0 15.0 15.0 15.0 14.9 11.1 3.4 12.4 8.2 3.7 10.7 6.4 15.0 7.1 3.6 5.0 5.2 14.0 0.4 10.0 14.5 13.9 15.0 15.0 15.0 15.0
15.0 4.4 15.0 15.0 2.7 4.6 3.9 9.6 15.0 7.1 0.5 12.1 12.3 15.0 9.3 6.7 1.5 10.6 13.5 5.1 9.3 9.8 1.8 3.3 3.7 1.2 1.6 4.3 3.8 8.1 7.1 2.3 7.9 1.9 5.6 3.7 0.2 0.1 0.1 13.1 6.1 15.0 15.0
5.4 1.5 5.9 3.8 0.5 0.2 0.1 1.1 0.1 0.1 0.1 0.1 0.1 0.1 0.1 0.1 0.1 0.1 0.2 0.2 0.3 0.2 0.1 0.2 5.9 0.1 0.1 0.2 1.0 15.0 5.3 8.6 8.2 12.5 4.3 14.9 15.0 10.3 15.0 11.7 14.8 11.2 15.0
2.3 2.8 2.2 1.5 2.4 2.3 2.3 1.9 0.2 0.1 1.3 0.3 0.1 0.2 0.1 0.1 0.4 0.1 0.1 0.1 0.1 0.2 0.1 0.1 0.1 0.2 0.1 0.3 2.7 1.8 0.6 7.4 10.7 9.5 5.5 4.4 4.7 8.9 7.9 2.5 6.0 15.0 15.0
10.4 3.1 2.6 3.0 2.8 3.9 2.8 3.7 4.7 5.4 0.7 0.3 0.3 0.8 0.2 0.2 5.6 9.1 5.9 3.8 0.9 0.9 0.7 3.6 3.0 2.6 3.9 0.6 0.1 0.1 0.1 0.1 0.2 2.7 5.8 2.9 5.4 4.6 1.7 4.3 8.3 8.5 15.0
15.0 15.0 15.0 15.0 14.9 13.4 14.1 15.0 13.4 9.0 15.0 15.0 15.0 2.2 0.2 0.3 14.8 14.1 9.7 9.9 10.0 0.2 0.7 2.2 5.0 9.1 13.6 9.3 0.6 0.1 0.2 0.1 2.3 4.4 2.7 3.1 2.7 2.5 3.0 3.7 2.1 1.6 0.7
15.0 15.0 15.0 15.0 15.0 15.0 15.0 15.0 15.0 15.0 15.0 15.0 15.0 15.0 15.0 15.0 15.0 15.0 15.0 15.0 15.0 15.0 15.0 15.0 15.0 13.9 14.9 11.8 14.5 15.0 0.5 0.2 1.1 0.6 0.3 0.3 1.8 2.8 3.0 3.6 4.6 0.1 0.1
15.0 15.0 15.0 15.0 15.0 15.0 15.0 15.0 15.0 15.0 15.0 15.0 15.0 15.0 15.0 15.0 15.0 15.0 15.0 15.0 15.0 15.0 15.0 15.0 15.0 15.0 15.0 15.0 12.1 0.9 3.1 15.0 15.0 11.6 0.4 0.1 0.2 0.1 0.2 1.3 2.9 0.1 0.1
15.0 15.0 15.0 15.0 15.0 15.0 15.0 15.0 15.0 15.0 15.0 15.0 15.0 15.0 15.0 15.0 15.0 15.0 15.0 15.0 15.0 15.0 15.0 15.0 15.0 15.0 15.0 15.0 8.4 10.5 14.1 11.0 0.6 0.3 0.2 0.2 0.4 0.2 0.3 1.3 4.2 2.2 4.1
15.0 15.0 15.0 15.0 15.0 15.0 15.0 15.0 15.0 15.0 15.0 15.0 15.0 15.0 15.0 15.0 15.0 15.0 15.0 15.0 15.0 15.0 15.0 15.0 15.0 15.0 15.0 15.0 15.0 14.9 11.4 1.1 0.3 0.2 0.3 7.2 7.7 9.2 0.5 6.4 5.9 1.0 0.2
15.0 15.0 15.0 15.0 15.0 15.0 15.0 15.0 15.0 15.0 15.0 15.0 15.0 15.0 15.0 15.0 15.0 15.0 15.0 15.0 15.0 15.0 15.0 15.0 15.0 15.0 15.0 15.0 1.1 0.7 0.3 6.0 8.2 3.4 15.0 11.1 7.1 3.3 2.4 7.3 2.0 0.1 0.1
15.0 15.0 15.0 15.0 15.0 15.0 15.0 15.0 15.0 15.0 15.0 15.0 15.0 15.0 15.0 14.5 15.0 15.0 15.0 15.0 15.0 15.0 15.0 9.4 8.7 7.3 7.0 10.6 15.0 7.8 0.4 0.1 0.1 1.2 0.8 1.8 4.3 0.6 0.1 0.1 0.1 0.1 0.1
15.0 15.0 15.0 15.0 15.0 15.0 15.0 15.0 15.0 15.0 15.0 15.0 15.0 15.0 15.0 15.0 15.0 14.8 15.0 15.0 15.0 15.0 15.0 0.2 0.1 0.1 0.1 0.1 0.1 0.1 7.5 4.6 0.1 0.1 0.2 0.0 0.0 0.0 0.1 0.1 0.1 0.1 0.1
15.0 15.0 15.0 15.0 15.0 15.0 15.0 15.0 15.0 15.0 15.0 15.0 15.0 15.0 15.0 15.0 15.0 15.0 15.0 15.0 15.0 15.0 0.1 0.2 0.3 0.0 0.0 0.0 0.0 0.0 0.0 0.0 0.1 0.0 0.0 0.0 0.0 0.0 0.0 0.1 0.1 0.1 0.1
15.0 15.0 15.0 15.0 15.0 15.0 15.0 15.0 15.0 15.0 15.0 15.0 15.0 15.0 15.0 15.0 15.0 15.0 15.0 15.0 15.0 15.0 15.0 14.5 14.4 10.2 13.7 0.0 0.0 0.0 0.0 0.0 0.0 0.0 0.0 0.0 0.0 0.0 0.0 0.0 0.3 0.2 0.2
15.0 15.0 15.0 15.0 15.0 15.0 15.0 15.0 15.0 15.0 15.0 15.0 15.0 15.0 15.0 15.0 15.0 15.0 15.0 15.0 15.0 15.0 15.0 15.0 15.0 15.0 5.9 3.8 6.7 7.6 0.2 0.8 0.2 0.0 0.0 0.0 0.0 0.0 0.0 0.0 0.1 0.6 0.1
15.0 15.0 15.0 15.0 15.0 15.0 15.0 15.0 15.0 15.0 15.0 15.0 15.0 15.0 15.0 15.0 15.0 15.0 15.0 15.0 15.0 15.0 15.0 15.0 15.0 15.0 15.0 13.2 5.4 5.2 0.4 0.8 1.1 0.5 0.0 0.0 0.0 0.0 0.0 0.0 0.1 0.1 0.1
15.0 15.0 15.0 15.0 15.0 15.0 15.0 15.0 15.0 15.0 15.0 15.0 15.0 15.0 15.0 15.0 15.0 15.0 15.0 15.0 15.0 15.0 15.0 15.0 15.0 8.7 4.7 7.2 3.8 3.5 2.7 2.9 0.6 0.2 0.1 0.1 0.0 0.0 0.0 0.0 0.1 0.1 0.1
15.0 15.0 15.0 15.0 15.0 15.0 15.0 15.0 15.0 15.0 15.0 15.0 15.0 15.0 15.0 15.0 15.0 15.0 15.0 15.0 15.0 15.0 15.0 14.4 4.9 2.1 3.6 2.0 0.9 0.7 1.2 0.7 0.7 0.7 0.5 1.1 0.1 0.0 0.0 0.1 0.1 0.1 0.1
15.0 15.0 15.0 15.0 15.0 15.0 15.0 15.0 15.0 15.0 15.0 15.0 15.0 15.0 15.0 15.0 15.0 15.0 15.0 15.0 15.0 15.0 15.0 7.8 5.9 8.9 15.0 8.2 3.0 0.5 0.4 1.1 9.7 0.7 0.5 2.5 1.5 0.0 0.0 0.1 0.1 0.1 0.1
15.0 15.0 15.0 15.0 15.0 15.0 15.0 15.0 15.0 15.0 15.0 15.0 15.0 15.0 15.0 15.0 15.0 15.0 15.0 15.0 15.0 15.0 15.0 15.0 13.7 1.4 5.8 1.5 1.7 2.0 2.2 15.0 15.0 6.1 0.7 0.7 0.7 1.4 0.5 0.4 0.1 0.1 0.1
15.0 15.0 15.0 15.0 15.0 15.0 15.0 15.0 15.0 15.0 15.0 15.0 15.0 15.0 15.0 15.0 15.0 15.0 15.0 15.0 15.0 15.0 15.0 15.0 15.0 2.6 1.3 1.3 0.9 1.9 6.7 4.9 1.2 7.8 4.6 2.0 0.7 0.9 0.7 0.3 0.2 0.1 0.1
15.0 15.0 15.0 15.0 15.0 15.0 15.0 15.0 13.4 10.3 13.2 15.0 15.0 15.0 15.0 15.0 15.0 15.0 15.0 15.0 15.0 15.0 12.1 15.0 13.3 4.5 4.4 6.9 4.7 4.2 8.3 6.8 4.5 2.1 0.6 1.2 1.2 1.2 1.1 0.2 0.2 0.2 0.1